Dewpoint
53 53 54 54 54 54 52 52 51 50 47 47 47 46 46 46 45 45 45 47 50 48 48 47 47 48 49 53 54 53 51 56 55 58 62 63 63 63 63 63 64 62 61
53 54 54 54 54 52 52 50 49 48 47 47 46 46 46 46 45 45 46 48 46 45 45 45 44 45 45 47 52 50 50 52 52 53 59 60 62 62 62 62 62 62 61
53 53 54 54 53 52 50 49 48 47 46 45 46 46 46 47 46 46 46 45 45 45 45 44 44 45 44 45 48 49 50 51 50 52 52 58 61 62 61 61 61 61 62
52 52 54 53 52 50 49 48 48 46 45 46 46 46 45 45 45 44 45 44 43 43 44 44 44 45 44 44 47 48 49 49 49 49 50 54 59 61 61 59 59 60 60
52 52 53 52 50 49 48 47 46 45 46 46 44 43 44 44 42 41 41 42 42 42 42 42 43 45 48 49 48 47 46 47 48 48 48 50 51 54 58 59 59 59 59
53 53 51 50 48 47 46 45 44 45 45 43 42 43 42 43 44 43 42 39 40 41 40 40 42 45 46 49 50 51 50 47 47 47 46 47 50 52 56 57 57 56 56
52 50 48 47 46 44 43 44 44 43 42 41 41 40 41 42 43 42 43 40 39 40 39 39 41 43 46 46 47 49 49 49 52 53 48 50 49 50 51 52 57 57 57
45 43 42 42 43 43 42 41 43 43 41 40 39 40 40 41 43 42 43 41 39 37 39 40 42 43 41 41 44 45 45 45 46 49 48 47 47 47 48 51 53 57 58
43 44 44 42 42 39 39 41 41 39 39 38 39 39 38 38 41 40 39 36 39 38 38 40 41 38 40 40 38 39 39 42 44 45 44 43 43 43 45 50 51 53 52
43 42 41 40 39 39 39 38 38 37 38 38 37 37 38 37 38 39 40 41 41 37 35 37 40 39 40 39 38 36 36 37 39 39 39 40 41 42 45 49 50 51 51
45 42 40 40 37 38 38 37 37 36 36 35 34 35 36 35 35 39 41 39 38 38 37 34 34 40 39 39 40 38 37 38 38 38 38 37 38 39 41 46 51 52 52
39 37 37 37 37 37 36 36 36 34 34 33 33 32 34 34 37 38 39 41 40 38 37 37 38 39 39 39 38 38 38 38 37 37 37 37 37 38 41 44 48 52 55
36 36 36 35 35 35 34 34 34 33 33 32 32 32 33 34 36 39 39 39 41 40 39 40 39 40 40 38 38 38 38 37 37 37 36 37 38 39 42 44 48 51 51
35 34 34 34 35 34 34 34 34 35 34 33 34 34 35 36 36 37 38 38 38 37 37 36 40 39 39 39 38 35 35 36 37 38 37 38 39 40 40 41 43 47 49
35 35 35 36 36 36 36 37 37 37 37 37 36 35 34 34 34 36 36 36 37 37 38 38 36 36 35 34 34 35 35 35 36 38 40 39 39 40 40 41 43 47 48
36 36 36 35 35 35 35 36 37 37 37 37 36 36 36 37 37 37 37 37 37 37 38 37 36 36 35 35 34 34 35 35 35 36 38 40 39 39 39 41 43 44 44
35 35 34 35 35 36 35 36 35 36 37 37 37 37 37 36 36 37 36 36 36 36 36 36 36 36 36 35 35 34 34 34 35 36 37 38 38 40 40 40 42 44 46
35 38 36 37 36 34 32 33 34 34 33 32 34 35 35 36 36 36 36 36 35 37 36 36 36 36 36 36 36 35 35 36 36 36 36 38 39 39 39 41 43 43 46
33 34 37 37 36 36 35 35 34 33 32 33 33 34 35 36 36 36 36 34 33 35 36 36 37 37 37 37 37 36 36 36 36 37 38 39 40 40 39 42 44 39 41
36 37 37 37 36 34 35 33 33 33 33 33 33 33 34 34 32 33 34 34 34 35 36 36 36 37 38 37 36 37 38 37 37 38 38 38 39 39 39 40 43 43 43
35 36 34 35 35 35 34 34 34 34 33 33 33 34 33 32 32 32 33 34 34 34 34 36 37 36 37 38 37 37 37 38 37 37 38 38 39 40 41 41 43 43 44
33 34 33 33 34 35 34 35 34 34 34 33 33 33 33 33 32 32 31 32 33 35 35 36 36 38 37 37 38 38 37 37 37 37 38 38 38 40 41 41 43 44 44
34 33 33 32 32 33 34 34 34 33 33 33 33 32 32 32 32 31 31 31 33 34 35 35 36 37 38 37 38 38 36 36 36 38 38 38 39 40 41 41 41 43 45
34 33 32 32 33 32 32 33 33 33 33 33 32 32 32 32 32 31 32 32 32 32 34 34 34 34 35 38 37 37 37 36 38 38 40 40 40 41 42 43 43 43 43
34 33 32 32 31 31 31 31 32 32 33 32 32 32 32 32 31 31 32 32 32 32 33 34 35 35 35 36 37 36 35 33 36 36 41 40 40 41 40 42 43 44 45
33 33 32 31 31 31 30 29 30 31 31 32 32 31 31 31 31 31 31 31 31 31 33 33 34 36 36 35 36 34 33 33 34 34 39 40 41 41 41 41 43 45 46
Lifted_Index
3 3 4 5 5 5 5 6 7 7 8 9 9 10 11 11 12 11 11 11 10 10 10 10 10 9 8 7 7 7 6 6 5 3 1 -0 -1 -1 -1 -1 -1 -1 -1
3 3 4 5 5 5 5 6 6 7 8 9 9 10 11 12 12 12 11 11 10 10 10 11 11 11 11 9 8 7 7 7 6 5 3 1 -1 -1 -1 -1 -1 -1 -1
3 3 4 4 4 4 4 5 6 7 8 9 9 11 12 12 12 12 11 11 11 11 11 11 12 13 12 11 10 8 8 7 7 7 5 3 0 -1 -2 -1 -1 -1 -1
3 3 3 3 3 3 3 4 5 7 7 8 9 11 12 13 12 12 11 11 11 11 11 12 12 12 12 11 10 9 8 8 7 7 6 5 2 0 -1 -2 -2 -1 -1
3 3 3 3 3 3 3 4 5 6 7 8 9 11 12 13 13 12 12 11 11 11 12 12 12 11 10 10 9 9 8 8 7 6 6 6 4 2 0 -1 -2 -1 -1
2 2 2 2 3 3 3 4 5 6 7 8 9 11 12 12 12 12 12 11 11 12 12 12 11 11 10 9 9 8 8 7 6 6 6 5 5 4 3 1 -0 -1 -1
1 1 2 2 3 3 4 4 5 6 7 8 10 11 11 12 12 12 12 12 12 12 12 12 11 11 10 10 10 9 8 8 7 6 6 6 5 5 5 3 1 0 -0
1 2 2 3 3 4 5 5 6 7 8 10 11 11 11 12 12 13 12 12 12 12 12 12 12 11 11 11 10 10 9 9 8 8 7 7 6 6 5 4 3 2 1
2 2 3 4 5 5 6 6 7 9 11 12 12 12 12 12 12 13 12 12 12 12 12 12 12 12 11 11 11 10 10 10 10 9 9 9 8 6 5 5 4 3 3
4 4 4 5 5 6 7 8 10 11 13 14 14 13 13 13 12 12 12 12 12 12 12 12 12 12 12 11 11 11 11 11 11 10 10 10 9 8 7 6 5 4 4
6 5 6 6 7 8 9 11 12 13 14 14 14 13 13 12 12 12 12 12 12 12 12 12 13 13 12 12 11 11 12 12 12 11 11 10 10 9 9 7 6 5 5
8 8 9 10 11 11 12 13 13 13 13 13 13 13 12 12 12 12 12 12 12 12 13 13 13 13 12 12 12 12 12 12 12 12 11 10 10 10 10 9 7 5 5
11 11 12 13 13 13 13 13 13 13 13 13 12 12 12 12 12 12 12 12 12 12 13 13 13 13 13 13 12 12 12 12 12 11 11 11 11 11 11 10 8 6 5
13 13 14 14 13 13 12 12 12 13 13 12 12 12 12 12 12 11 11 11 12 12 13 13 13 13 13 13 12 12 11 12 12 11 11 11 12 12 12 11 9 6 5
12 12 12 12 12 12 12 12 12 12 12 12 12 12 11 11 11 11 11 10 11 12 13 13 13 13 12 12 11 11 11 11 12 12 12 12 12 12 12 11 10 8 6
11 11 11 11 11 11 11 11 11 12 12 12 12 12 12 11 11 11 10 10 10 11 12 13 13 13 12 11 11 11 11 11 12 12 12 12 12 12 12 12 11 9 8
11 11 11 11 11 11 10 10 10 10 11 11 12 12 12 12 12 11 11 10 10 11 12 12 13 13 12 12 12 12 12 12 13 13 13 13 13 13 12 12 11 10 9
12 12 11 11 11 11 11 10 10 9 9 10 11 12 12 13 13 12 12 11 10 10 11 12 13 13 13 13 13 13 13 13 14 13 13 13 13 13 13 12 11 10 10
12 12 12 12 11 11 11 11 10 10 9 9 9 11 12 12 12 12 12 12 11 11 12 13 14 14 14 14 13 14 14 14 14 13 13 14 13 13 13 12 11 10 9
13 13 12 12 11 11 11 11 10 10 9 9 9 10 11 11 10 11 11 12 12 13 14 14 15 15 15 15 15 14 14 13 13 13 13 13 13 13 13 12 11 10 9
13 13 13 12 12 11 11 11 10 10 9 9 9 10 10 10 9 10 10 12 13 14 15 16 16 17 17 17 16 15 15 14 14 13 13 13 13 13 13 13 12 10 9
12 13 13 13 13 12 11 11 10 10 10 10 9 10 10 10 10 10 10 12 14 15 16 17 17 17 17 18 17 17 16 15 15 14 14 14 14 14 13 13 12 11 10
12 12 13 13 13 12 11 11 11 10 10 10 10 10 10 10 10 10 11 12 14 15 16 17 17 17 17 18 18 18 17 17 16 15 14 14 14 14 13 13 12 11 10
12 13 13 14 13 13 12 11 11 11 11 10 10 10 10 10 10 11 12 13 14 15 16 16 17 17 17 18 18 18 18 18 17 16 15 14 14 13 13 12 12 10 9
12 13 13 14 14 13 12 11 11 11 11 11 10 10 10 10 11 11 12 13 13 14 15 16 16 17 17 17 18 19 19 18 18 16 15 15 14 14 13 12 11 9 9
12 13 14 14 14 13 13 12 11 11 11 11 11 11 10 10 10 11 12 12 13 13 14 15 16 16 17 18 18 18 19 19 18 17 16 15 14 14 13 12 10 9 8